Wind_Speed
6 6 6 6 6 6 6 6 7 8 9 10 11 12 12 13 13 14 14 13 13 13 13 13 12 12 12 12 11 11 11 11 11 10 10 9 9 9 8 7 6 5 5
8 9 8 9 9 9 9 9 9 10 10 11 11 12 13 13 14 14 14 13 13 13 12 12 12 12 11 11 11 11 10 10 9 9 8 8 8 7 6 5 5 5 5
10 11 11 11 11 11 12 12 12 12 12 12 13 13 14 14 15 15 14 14 13 13 12 12 11 11 10 9 10 10 9 8 8 7 7 7 7 6 6 5 4 4 4
12 12 12 12 13 13 14 15 15 14 14 14 14 14 15 15 15 15 15 14 14 13 12 11 11 10 9 9 9 9 8 7 7 6 6 6 6 5 5 4 4 3 3
13 13 14 15 15 16 16 17 16 17 17 17 17 17 17 17 16 16 15 15 14 13 12 11 10 10 9 8 8 8 8 7 6 6 6 6 5 5 4 3 3 3 2
15 15 16 16 17 18 18 19 19 19 19 20 20 20 19 19 18 17 16 16 15 14 13 12 11 10 9 9 8 8 8 7 6 6 5 5 4 4 4 3 3 3 2
17 17 18 18 19 20 20 21 21 21 22 22 22 22 21 21 20 20 19 18 17 15 14 13 12 11 10 10 9 8 8 7 6 5 5 5 4 4 4 3 3 2 2
21 21 21 21 21 21 22 22 23 24 24 24 25 24 24 24 24 23 22 21 19 18 17 15 14 13 12 11 10 9 8 7 6 5 5 4 4 4 3 3 3 3 2
24 25 24 24 24 24 24 23 24 25 25 26 26 26 26 25 24 25 25 24 22 21 19 18 17 15 14 13 11 10 9 8 7 6 5 5 4 4 3 3 3 3 3
27 27 27 27 27 28 28 28 27 27 26 27 28 28 27 25 25 25 26 26 25 24 22 21 19 18 16 15 13 12 11 9 8 6 6 6 5 4 4 3 3 3 3
29 29 30 30 31 31 31 31 31 31 30 30 29 30 30 29 27 26 26 26 27 26 25 24 23 21 19 18 16 14 13 11 9 8 7 7 6 5 4 4 3 4 4
30 30 32 32 32 32 32 33 33 33 33 33 32 31 31 31 30 29 27 27 28 28 27 25 24 23 22 21 19 17 15 13 12 10 9 8 7 6 5 4 4 4 4
31 31 32 32 33 33 33 33 34 34 35 35 35 34 32 32 31 30 29 28 28 28 27 26 27 25 24 23 21 19 17 16 14 12 11 9 8 7 6 5 5 5 4
30 30 30 30 31 32 32 32 33 33 34 34 35 35 35 34 34 33 32 30 29 29 28 26 27 27 25 24 24 21 19 17 16 14 12 11 10 9 8 7 6 6 5
26 26 26 26 27 28 28 29 30 31 32 32 33 34 35 35 35 35 33 33 31 30 30 29 27 27 27 26 25 24 22 19 18 17 15 13 12 11 9 8 8 7 6
23 23 23 24 24 25 26 27 28 29 30 31 31 32 34 35 35 36 35 35 34 32 30 30 29 29 28 27 28 28 25 23 20 19 17 16 14 13 11 10 9 8 8
22 23 23 23 23 24 24 24 25 26 27 28 29 30 32 33 34 34 35 35 35 34 33 32 31 30 29 28 28 29 28 26 23 21 20 19 17 15 14 12 11 10 10
22 23 23 23 23 23 23 23 23 24 25 25 26 27 29 30 32 33 34 34 35 35 34 33 33 32 31 30 29 29 29 27 25 24 23 21 19 18 17 15 14 13 12
21 21 21 22 22 22 22 22 22 23 23 24 25 26 28 29 30 31 32 33 34 34 34 34 34 33 33 32 31 30 30 29 28 27 25 23 22 21 19 18 17 15 14
21 21 22 22 22 22 22 21 21 21 22 23 24 24 26 27 28 30 31 32 33 34 34 35 34 33 33 33 32 31 30 30 29 29 27 26 24 23 22 21 19 18 17
21 22 22 22 22 21 20 20 19 20 20 21 21 22 23 24 26 28 29 30 32 33 33 34 34 34 34 34 32 32 31 31 30 29 29 28 27 26 25 24 22 21 20
21 22 22 22 21 21 20 19 19 19 20 20 19 20 20 21 23 25 27 28 30 31 32 32 34 34 34 33 33 32 32 32 31 31 30 30 30 28 27 25 25 23 22
21 22 22 22 22 21 20 20 20 20 19 19 18 18 18 19 20 22 23 25 27 29 30 31 32 33 34 35 34 33 33 34 33 33 32 31 31 30 29 27 26 25 24
21 22 23 22 22 22 21 21 21 20 20 18 17 17 17 17 18 20 21 23 25 27 28 29 31 32 33 34 35 34 34 33 34 33 33 32 32 32 31 29 29 28 27
21 22 23 23 23 23 22 22 22 21 20 19 17 16 15 16 17 18 19 21 22 24 26 27 29 30 31 33 33 34 35 35 34 33 33 33 33 33 32 30 30 31 30
22 23 23 23 23 23 23 23 22 21 21 20 18 16 15 15 15 16 17 18 20 22 24 26 27 29 30 32 33 33 34 35 35 34 33 34 34 34 33 33 32 31 31
Wind_Direction
290 284 283 279 273 267 258 247 240 239 240 240 238 237 237 238 241 245 248 249 252 255 255 256 260 263 267 270 273 275 275 275 279 283 288 291 295 298 299 300 302 308 319
290 284 278 275 271 268 264 259 254 250 248 247 246 244 244 244 245 247 250 251 253 256 256 257 260 263 267 270 272 274 275 275 278 282 286 292 296 298 297 294 293 299 311
291 287 280 273 269 267 263 259 257 255 253 252 251 251 250 250 249 249 251 252 254 256 257 258 259 263 267 269 271 272 272 274 276 280 284 287 292 296 296 291 288 292 303
294 289 284 279 273 268 264 260 257 258 255 254 253 253 252 253 253 252 252 254 255 257 257 258 259 263 267 268 269 268 268 270 273 276 279 285 291 295 295 287 280 276 279
291 286 282 280 276 272 268 260 259 259 256 254 254 253 252 252 253 254 253 254 256 257 256 257 258 261 264 265 265 264 264 265 269 273 278 283 288 292 291 283 271 261 255
291 286 283 279 277 274 271 263 256 257 256 254 255 254 252 252 253 253 253 253 254 254 255 255 256 258 260 262 263 261 261 263 267 271 275 278 283 285 283 275 256 249 242
290 287 284 282 279 275 273 267 259 258 257 256 255 255 255 253 252 252 251 251 251 251 251 252 254 255 257 259 260 260 260 260 264 266 270 278 284 283 284 270 245 231 220
288 287 285 282 279 276 275 271 266 263 262 259 256 255 254 255 252 251 250 249 249 248 248 249 251 252 254 256 257 258 257 257 258 260 263 272 277 278 278 264 236 226 209
290 287 283 280 278 276 275 269 267 268 266 262 259 257 254 255 254 251 249 249 248 249 248 248 249 251 252 253 254 255 255 253 253 254 255 259 266 273 270 261 243 232 214
290 287 284 282 278 275 274 272 271 268 267 266 264 260 258 258 259 257 250 248 246 246 246 247 247 248 249 250 251 251 251 249 249 248 250 252 256 263 263 256 239 228 214
290 288 286 283 280 278 275 273 270 269 268 267 266 264 261 259 260 259 252 248 245 244 245 246 246 245 247 247 247 248 247 246 246 245 246 249 249 253 254 248 236 225 215
292 290 288 286 283 280 278 275 272 269 268 267 266 266 263 262 262 259 256 251 248 243 244 246 245 245 246 246 246 245 245 244 243 242 242 244 244 245 246 241 235 225 216
295 293 290 288 285 283 280 278 275 273 271 269 266 265 264 263 263 261 257 258 253 246 244 245 245 245 245 245 245 244 244 244 241 239 239 239 240 239 240 237 234 224 215
299 296 293 291 288 285 283 280 278 275 273 270 268 266 264 263 262 263 257 257 257 251 249 247 246 245 244 244 244 243 244 244 239 237 238 237 236 235 234 234 233 225 218
306 303 300 297 293 289 286 283 281 278 276 273 269 266 264 262 260 262 259 255 255 253 251 251 249 248 244 243 242 240 240 241 238 235 236 237 236 234 233 231 232 227 221
314 312 309 306 303 297 291 286 282 280 277 276 272 268 265 263 261 259 259 256 255 255 254 253 253 252 248 244 240 238 238 240 239 234 235 236 236 233 231 230 229 227 222
318 316 313 310 307 303 298 292 287 283 280 278 274 269 265 263 261 259 258 257 256 256 254 252 251 251 251 248 243 240 238 239 238 235 233 235 235 233 231 230 229 227 225
323 321 319 315 312 308 305 299 292 288 284 280 276 272 267 263 260 258 256 255 255 255 255 253 251 249 250 248 244 241 239 238 237 236 233 233 233 233 231 230 230 228 227
330 328 327 324 320 315 310 305 299 294 289 284 280 275 270 265 261 259 257 254 253 253 252 252 252 250 249 248 244 241 240 237 235 236 233 231 232 232 232 231 230 230 229
336 335 333 329 326 322 317 311 305 300 295 290 286 280 273 267 262 259 257 254 252 251 250 250 251 248 247 247 245 241 239 239 236 237 235 232 230 231 230 230 230 230 230
342 340 338 335 333 330 326 320 315 309 303 297 292 285 278 271 265 260 256 254 252 250 249 249 249 247 246 247 245 242 239 239 237 235 236 234 231 231 229 229 229 230 230
348 346 345 343 342 340 336 331 324 318 311 304 297 290 283 276 269 262 258 255 252 250 249 250 248 246 245 245 244 242 240 237 236 236 235 233 231 230 230 229 229 230 231
353 353 352 350 349 347 345 340 334 327 321 314 306 297 288 280 274 267 260 256 253 251 249 249 248 246 244 244 242 241 240 239 238 237 236 235 233 231 230 228 228 228 229
358 357 357 356 355 352 349 346 343 338 333 325 316 306 296 286 278 270 263 258 254 251 249 248 247 246 244 243 242 241 241 240 237 235 236 236 234 231 229 229 232 229 230
1 1 1 0 359 358 355 352 349 345 341 335 326 316 305 295 284 275 266 260 256 252 249 248 245 245 244 242 241 241 240 240 238 235 235 235 234 231 229 231 231 231 230
5 4 4 3 2 1 360 357 354 352 349 344 336 326 315 305 294 282 271 263 258 255 251 248 246 245 244 242 240 239 239 239 237 237 237 236 233 231 231 232 232 233 231
Height
5899 5898 5897 5897 5896 5896 5896 5896 5895 5895 5895 5895 5895 5895 5895 5895 5895 5895 5896 5896 5896 5896 5896 5896 5896 5896 5896 5895 5895 5895 5895 5894 5894 5894 5894 5893 5893 5892 5892 5892 5891 5891 5891
5898 5897 5897 5897 5896 5896 5895 5895 5895 5895 5894 5894 5894 5894 5894 5894 5894 5894 5894 5895 5895 5895 5895 5894 5894 5894 5894 5894 5894 5893 5893 5893 5893 5893 5892 5892 5891 5891 5891 5891 5891 5891 5891
5897 5896 5896 5895 5895 5895 5894 5894 5894 5894 5893 5893 5893 5893 5893 5893 5893 5893 5893 5894 5894 5894 5893 5893 5893 5893 5893 5893 5892 5892 5892 5892 5892 5892 5891 5891 5890 5890 5890 5890 5890 5890 5890
5896 5895 5894 5894 5893 5893 5892 5892 5892 5892 5892 5892 5891 5891 5891 5891 5892 5892 5892 5892 5892 5892 5892 5892 5892 5892 5892 5891 5891 5891 5891 5891 5891 5891 5890 5890 5889 5889 5889 5889 5889 5889 5890
5895 5894 5893 5892 5891 5891 5890 5889 5889 5890 5889 5889 5889 5889 5889 5889 5890 5890 5890 5890 5890 5891 5891 5891 5891 5891 5890 5890 5890 5890 5890 5890 5890 5890 5890 5889 5889 5888 5888 5888 5888 5889 5889
5893 5892 5890 5889 5889 5888 5887 5887 5887 5887 5887 5886 5886 5886 5886 5887 5887 5888 5888 5888 5889 5889 5889 5889 5889 5889 5889 5889 5889 5889 5889 5889 5889 5889 5889 5888 5888 5888 5888 5887 5888 5888 5889
5890 5889 5888 5887 5886 5885 5884 5884 5883 5883 5883 5883 5883 5883 5883 5884 5885 5885 5885 5886 5886 5887 5887 5887 5888 5888 5888 5888 5888 5887 5888 5888 5888 5888 5888 5888 5887 5887 5887 5887 5887 5887 5888
5886 5885 5884 5883 5882 5881 5880 5880 5879 5879 5879 5879 5879 5879 5879 5880 5881 5882 5882 5883 5883 5884 5884 5885 5885 5886 5886 5886 5886 5886 5886 5887 5887 5887 5887 5887 5887 5886 5886 5886 5887 5887 5887
5881 5880 5879 5878 5877 5876 5875 5875 5874 5874 5874 5874 5874 5874 5875 5876 5876 5877 5878 5879 5880 5880 5881 5882 5883 5883 5884 5884 5885 5885 5885 5885 5886 5886 5886 5886 5886 5886 5886 5886 5886 5886 5887
5876 5874 5873 5872 5871 5870 5869 5869 5869 5868 5868 5868 5869 5869 5870 5871 5871 5872 5873 5874 5876 5877 5878 5879 5879 5880 5881 5882 5882 5883 5883 5884 5884 5885 5885 5885 5885 5885 5885 5885 5885 5886 5886
5870 5868 5866 5865 5864 5863 5862 5862 5862 5862 5862 5862 5862 5863 5864 5865 5866 5867 5868 5869 5870 5872 5873 5875 5876 5877 5878 5879 5880 5881 5881 5882 5883 5884 5884 5884 5884 5884 5885 5885 5885 5885 5886
5863 5861 5859 5858 5856 5855 5855 5854 5854 5854 5854 5855 5856 5856 5857 5859 5860 5861 5862 5864 5865 5866 5868 5870 5871 5873 5874 5875 5877 5878 5879 5880 5881 5882 5882 5882 5883 5883 5884 5884 5884 5885 5885
5857 5854 5852 5850 5849 5848 5847 5846 5846 5846 5846 5847 5848 5849 5850 5852 5853 5854 5856 5857 5859 5860 5862 5864 5866 5868 5870 5871 5873 5874 5876 5877 5879 5880 5880 5881 5882 5882 5883 5883 5884 5884 5885
5850 5848 5845 5844 5842 5840 5839 5838 5837 5837 5838 5839 5840 5841 5842 5844 5845 5847 5849 5851 5852 5854 5856 5858 5860 5862 5865 5867 5869 5871 5872 5874 5875 5877 5878 5879 5880 5881 5881 5882 5883 5884 5884
5845 5842 5839 5837 5835 5833 5832 5831 5830 5829 5829 5830 5831 5832 5833 5835 5837 5839 5841 5844 5846 5848 5850 5851 5854 5856 5859 5861 5863 5866 5868 5869 5872 5874 5875 5876 5878 5879 5880 5881 5882 5883 5884
5840 5837 5835 5832 5830 5827 5826 5824 5823 5822 5822 5822 5822 5823 5824 5826 5829 5831 5833 5835 5838 5840 5843 5845 5848 5850 5853 5855 5858 5860 5863 5865 5868 5870 5872 5874 5875 5877 5878 5879 5880 5881 5883
5837 5834 5830 5828 5825 5822 5820 5818 5817 5816 5815 5814 5814 5815 5816 5817 5820 5822 5824 5827 5830 5833 5836 5838 5840 5843 5846 5849 5851 5854 5857 5860 5863 5866 5868 5870 5872 5874 5876 5877 5879 5880 5881
5833 5830 5827 5823 5820 5817 5815 5813 5811 5809 5808 5807 5807 5807 5807 5809 5811 5813 5816 5819 5821 5824 5828 5830 5832 5836 5839 5842 5845 5848 5851 5855 5858 5861 5863 5866 5869 5871 5873 5875 5876 5878 5880
5831 5827 5823 5820 5816 5813 5810 5808 5805 5804 5802 5801 5800 5800 5800 5801 5802 5805 5807 5810 5812 5816 5819 5823 5826 5828 5832 5835 5838 5842 5845 5848 5852 5855 5858 5861 5864 5867 5869 5871 5873 5875 5877
5828 5825 5821 5817 5813 5809 5806 5803 5800 5798 5796 5795 5793 5793 5792 5793 5794 5796 5798 5801 5804 5807 5811 5814 5818 5821 5824 5828 5831 5835 5839 5842 5845 5849 5852 5856 5859 5862 5865 5867 5869 5872 5874
5826 5822 5818 5814 5810 5806 5802 5799 5796 5794 5791 5789 5788 5786 5786 5786 5786 5788 5790 5793 5795 5799 5802 5806 5810 5813 5817 5820 5824 5828 5832 5835 5839 5843 5847 5850 5854 5856 5859 5862 5865 5868 5870
5825 5821 5816 5812 5808 5804 5800 5796 5793 5790 5787 5785 5782 5781 5780 5779 5780 5781 5783 5785 5787 5790 5794 5798 5801 5805 5809 5812 5817 5820 5825 5829 5832 5836 5840 5844 5848 5851 5854 5856 5860 5863 5866
5824 5820 5815 5810 5806 5802 5798 5794 5790 5786 5783 5780 5778 5776 5774 5774 5774 5774 5776 5778 5780 5783 5786 5789 5793 5797 5801 5805 5808 5813 5818 5822 5825 5829 5833 5837 5841 5845 5848 5851 5854 5857 5861
5824 5819 5814 5810 5805 5800 5796 5792 5787 5783 5780 5776 5773 5771 5770 5769 5768 5769 5770 5771 5773 5776 5778 5781 5785 5788 5792 5796 5800 5805 5810 5814 5818 5822 5827 5830 5834 5838 5842 5845 5848 5851 5856
5824 5819 5814 5809 5804 5800 5795 5790 5786 5781 5777 5773 5770 5767 5765 5764 5763 5763 5764 5765 5767 5769 5771 5774 5777 5780 5783 5788 5792 5797 5801 5806 5810 5814 5819 5823 5827 5831 5835 5838 5842 5846 5850
5824 5819 5814 5809 5804 5799 5794 5789 5784 5780 5775 5771 5767 5764 5762 5760 5759 5758 5758 5759 5761 5762 5765 5767 5770 5773 5776 5780 5784 5788 5793 5797 5802 5806 5811 5815 5819 5824 5828 5832 5836 5839 5843